Time,TemperatureF,DewpointF,PressureIn,WindDirection,WindDirectionDegrees,WindSpeedMPH,WindSpeedGustMPH,Humidity,HourlyPrecipIn,Conditions,Clouds,dailyrainin,SoftwareType,DateUTC
2013-05-05 00:00:00,53.1,52.8,29.87,East,80,0.0,2.0,99,0.00,,---,0.00,VWS V14.01,2013-05-05 04:00:00,
2013-05-05 00:01:00,50.7,49.9,29.86,ENE,59,0.0,1.0,97,0.00,,---,0.00,VWS V14.01,2013-05-05 04:01:00,
2013-05-05 00:05:00,53.1,52.8,29.86,East,79,0.0,2.0,99,0.00,,---,0.00,VWS V14.01,2013-05-05 04:05:00,
2013-05-05 00:06:00,50.4,49.9,29.85,East,84,0.0,1.0,98,0.00,,---,0.00,VWS V14.01,2013-05-05 04:06:00,
2013-05-05 00:10:00,53.1,52.8,29.86,East,79,0.0,1.0,99,0.00,,---,0.00,VWS V14.01,2013-05-05 04:10:00,
2013-05-05 00:11:00,50.1,49.3,29.85,West,278,1.0,1.0,97,0.00,,---,0.00,VWS V14.01,2013-05-05 04:11:00,
2013-05-05 00:15:00,52.9,52.6,29.87,NE,40,1.0,1.0,99,0.00,,---,0.00,VWS V14.01,2013-05-05 04:15:00,
2013-05-05 00:16:00,50.0,49.5,29.85,NE,44,1.0,1.0,98,0.00,,---,0.00,VWS V14.01,2013-05-05 04:16:00,
2013-05-05 00:20:00,52.8,52.5,29.87,NNE,19,1.0,2.0,99,0.00,,---,0.00,VWS V14.01,2013-05-05 04:20:00,
2013-05-05 00:21:00,49.8,49.0,29.85,NNW,347,1.0,1.0,97,0.00,,---,0.00,VWS V14.01,2013-05-05 04:21:00,
2013-05-05 00:25:00,52.8,52.5,29.87,NE,46,0.0,2.0,99,0.00,,---,0.00,VWS V14.01,2013-05-05 04:25:00,
2013-05-05 00:26:00,49.5,48.7,29.85,WSW,242,2.0,4.0,97,0.00,,---,0.00,VWS V14.01,2013-05-05 04:26:00,
2013-05-05 00:30:00,52.6,52.3,29.86,East,87,2.0,3.0,99,0.00,,---,0.00,VWS V14.01,2013-05-05 04:30:00,
2013-05-05 00:31:00,49.2,48.4,29.85,SSW,205,1.0,1.0,97,0.00,,---,0.00,VWS V14.01,2013-05-05 04:31:00,
2013-05-05 00:35:00,52.5,52.2,29.86,ESE,105,2.0,2.0,99,0.00,,---,0.00,VWS V14.01,2013-05-05 04:35:00,
2013-05-05 00:36:00,49.0,48.2,29.84,WNW,301,1.0,2.0,97,0.00,,---,0.00,VWS V14.01,2013-05-05 04:36:00,
2013-05-05 00:40:00,52.5,52.2,29.86,East,84,1.0,2.0,99,0.00,,---,0.00,VWS V14.01,2013-05-05 04:40:00,
2013-05-05 00:41:00,48.9,48.1,29.85,North,1,0.0,1.0,97,0.00,,---,0.00,VWS V14.01,2013-05-05 04:41:00,
2013-05-05 00:45:00,52.3,52.0,29.86,East,89,0.0,4.0,99,0.00,,---,0.00,VWS V14.01,2013-05-05 04:45:00,
2013-05-05 00:46:00,48.8,48.0,29.85,NE,41,0.0,1.0,97,0.00,,---,0.00,VWS V14.01,2013-05-05 04:46:00,
2013-05-05 00:50:00,51.7,51.2,29.86,SSE,155,3.0,4.0,98,0.00,,---,0.00,VWS V14.01,2013-05-05 04:50:00,
2013-05-05 00:51:00,48.7,47.9,29.85,East,87,0.0,2.0,97,0.00,,---,0.00,VWS V14.01,2013-05-05 04:51:00,
2013-05-05 00:55:00,51.0,50.2,29.86,ENE,75,0.0,3.0,97,0.00,,---,0.00,VWS V14.01,2013-05-05 04:55:00,
2013-05-05 00:56:00,48.7,47.9,29.85,WNW,283,0.0,1.0,97,0.00,,---,0.00,VWS V14.01,2013-05-05 04:56:00,
2013-05-05 01:00:00,50.7,49.9,29.86,ENE,68,0.0,2.0,97,0.00,,---,0.00,VWS V14.01,2013-05-05 05:00:00,
2013-05-05 01:01:00,48.5,47.4,29.84,SE,134,0.0,5.0,96,0.00,,---,0.00,VWS V14.01,2013-05-05 05:01:00,
2013-05-05 01:05:00,50.5,49.7,29.85,East,84,0.0,3.0,97,0.00,,---,0.00,VWS V14.01,2013-05-05 05:05:00,
2013-05-05 01:06:00,48.3,47.2,29.84,ENE,74,0.0,5.0,96,0.00,,---,0.00,VWS V14.01,2013-05-05 05:06:00,
2013-05-05 01:10:00,50.2,49.4,29.85,NE,50,1.0,2.0,97,0.00,,---,0.00,VWS V14.01,2013-05-05 05:10:00,
2013-05-05 01:11:00,48.1,47.0,29.84,ESE,118,4.0,5.0,96,0.00,,---,0.00,VWS V14.01,2013-05-05 05:11:00,
2013-05-05 01:15:00,50.0,49.5,29.85,NE,56,0.0,2.0,98,0.00,,---,0.00,VWS V14.01,2013-05-05 05:15:00,
2013-05-05 01:16:00,48.0,46.9,29.84,ESE,104,2.0,3.0,96,0.00,,---,0.00,VWS V14.01,2013-05-05 05:16:00,
2013-05-05 01:20:00,49.8,49.0,29.85,ENE,76,0.0,4.0,97,0.00,,---,0.00,VWS V14.01,2013-05-05 05:20:00,
2013-05-05 01:21:00,47.9,46.8,29.84,ENE,65,1.0,1.0,96,0.00,,---,0.00,VWS V14.01,2013-05-05 05:21:00,
2013-05-05 01:25:00,49.6,48.8,29.85,SSE,156,4.0,5.0,97,0.00,,---,0.00,VWS V14.01,2013-05-05 05:25:00,
2013-05-05 01:26:00,47.8,46.7,29.84,NE,51,0.0,2.0,96,0.00,,---,0.00,VWS V14.01,2013-05-05 05:26:00,
2013-05-05 01:30:00,49.3,48.5,29.85,WNW,295,1.0,4.0,97,0.00,,---,0.00,VWS V14.01,2013-05-05 05:30:00,
2013-05-05 01:31:00,47.7,46.6,29.84,NE,52,0.0,1.0,96,0.00,,---,0.00,VWS V14.01,2013-05-05 05:31:00,
2013-05-05 01:35:00,49.1,48.3,29.84,NNW,343,2.0,2.0,97,0.00,,---,0.00,VWS V14.01,2013-05-05 05:35:00,
2013-05-05 01:36:00,47.7,46.3,29.85,NNE,30,1.0,8.0,95,0.00,,---,0.00,VWS V14.01,2013-05-05 05:36:00,
2013-05-05 01:40:00,48.9,48.1,29.85,North,8,1.0,2.0,97,0.00,,---,0.00,VWS V14.01,2013-05-05 05:40:00,
2013-05-05 01:41:00,47.7,46.3,29.85,West,262,5.0,5.0,95,0.00,,---,0.00,VWS V14.01,2013-05-05 05:41:00,
2013-05-05 01:45:00,48.8,48.0,29.85,ENE,70,0.0,4.0,97,0.00,,---,0.00,VWS V14.01,2013-05-05 05:45:00,
2013-05-05 01:46:00,47.6,46.2,29.84,East,84,1.0,2.0,95,0.00,,---,0.00,VWS V14.01,2013-05-05 05:46:00,
2013-05-05 01:50:00,48.8,48.0,29.85,East,87,2.0,3.0,97,0.00,,---,0.00,VWS V14.01,2013-05-05 05:50:00,
2013-05-05 01:51:00,47.4,46.3,29.83,North,349,0.0,1.0,96,0.00,,---,0.00,VWS V14.01,2013-05-05 05:51:00,
2013-05-05 01:55:00,48.7,47.9,29.85,WNW,284,1.0,2.0,97,0.00,,---,0.00,VWS V14.01,2013-05-05 05:55:00,
2013-05-05 01:56:00,47.2,46.1,29.83,ESE,118,3.0,3.0,96,0.00,,---,0.00,VWS V14.01,2013-05-05 05:56:00,
2013-05-05 02:00:00,48.6,47.8,29.84,ESE,103,3.0,4.0,97,0.00,,---,0.00,VWS V14.01,2013-05-05 06:00:00,
2013-05-05 02:01:00,47.1,46.0,29.83,WNW,282,1.0,4.0,96,0.00,,---,0.00,VWS V14.01,2013-05-05 06:01:00,
2013-05-05 02:05:00,48.3,47.2,29.84,ESE,102,2.0,8.0,96,0.00,,---,0.00,VWS V14.01,2013-05-05 06:05:00,
2013-05-05 02:06:00,46.9,45.5,29.82,SSE,156,4.0,5.0,95,0.00,,---,0.00,VWS V14.01,2013-05-05 06:06:00,
2013-05-05 02:10:00,48.2,47.1,29.84,ENE,78,1.0,5.0,96,0.00,,---,0.00,VWS V14.01,2013-05-05 06:10:00,
2013-05-05 02:11:00,46.9,45.5,29.81,SW,221,0.0,8.0,95,0.00,,---,0.00,VWS V14.01,2013-05-05 06:11:00,
2013-05-05 02:15:00,48.1,47.0,29.84,West,273,1.0,12.0,96,0.00,,---,0.00,VWS V14.01,2013-05-05 06:15:00,
2013-05-05 02:16:00,46.9,45.5,29.81,ESE,103,3.0,4.0,95,0.00,,---,0.00,VWS V14.01,2013-05-05 06:16:00,
2013-05-05 02:20:00,47.9,46.8,29.84,East,100,0.0,5.0,96,0.00,,---,0.00,VWS V14.01,2013-05-05 06:20:00,
2013-05-05 02:21:00,46.9,45.5,29.81,East,101,5.0,10.0,95,0.00,,---,0.00,VWS V14.01,2013-05-05 06:21:00,
2013-05-05 02:25:00,47.8,46.7,29.84,NNE,22,1.0,4.0,96,0.00,,---,0.00,VWS V14.01,2013-05-05 06:25:00,
2013-05-05 02:26:00,46.9,45.5,29.82,NNE,15,0.0,2.0,95,0.00,,---,0.00,VWS V14.01,2013-05-05 06:26:00,
2013-05-05 02:30:00,47.7,46.6,29.84,East,79,0.0,2.0,96,0.00,,---,0.00,VWS V14.01,2013-05-05 06:30:00,
2013-05-05 02:31:00,47.0,45.7,29.82,NE,45,1.0,2.0,95,0.00,,---,0.00,VWS V14.01,2013-05-05 06:31:00,
2013-05-05 02:35:00,47.7,46.3,29.85,SE,124,6.0,10.0,95,0.00,,---,0.00,VWS V14.01,2013-05-05 06:35:00,
2013-05-05 02:36:00,47.0,45.7,29.82,NW,323,0.0,1.0,95,0.00,,---,0.00,VWS V14.01,2013-05-05 06:36:00,
2013-05-05 02:40:00,47.7,46.3,29.85,NE,50,1.0,8.0,95,0.00,,---,0.00,VWS V14.01,2013-05-05 06:40:00,
2013-05-05 02:41:00,47.0,45.7,29.82,East,85,2.0,2.0,95,0.00,,---,0.00,VWS V14.01,2013-05-05 06:41:00,
2013-05-05 02:45:00,47.6,46.2,29.84,NNE,24,0.0,5.0,95,0.00,,---,0.00,VWS V14.01,2013-05-05 06:45:00,
2013-05-05 02:46:00,46.9,45.5,29.82,East,79,2.0,3.0,95,0.00,,---,0.00,VWS V14.01,2013-05-05 06:46:00,
2013-05-05 02:50:00,47.5,46.1,29.84,NE,36,0.0,7.0,95,0.00,,---,0.00,VWS V14.01,2013-05-05 06:50:00,
2013-05-05 02:51:00,46.9,45.3,29.82,East,100,2.0,4.0,94,0.00,,---,0.00,VWS V14.01,2013-05-05 06:51:00,
2013-05-05 02:55:00,47.3,46.2,29.83,WNW,287,1.0,3.0,96,0.00,,---,0.00,VWS V14.01,2013-05-05 06:55:00,
2013-05-05 02:56:00,46.9,45.3,29.81,NE,53,1.0,8.0,94,0.00,,---,0.00,VWS V14.01,2013-05-05 06:56:00,
2013-05-05 03:00:00,47.1,46.0,29.83,ENE,58,1.0,3.0,96,0.00,,---,0.00,VWS V14.01,2013-05-05 07:00:00,
2013-05-05 03:01:00,46.8,45.5,29.81,WSW,249,0.0,3.0,95,0.00,,---,0.00,VWS V14.01,2013-05-05 07:01:00,
2013-05-05 03:05:00,46.9,45.5,29.82,ENE,62,0.0,8.0,95,0.00,,---,0.00,VWS V14.01,2013-05-05 07:05:00,
2013-05-05 03:06:00,46.7,45.3,29.81,ESE,111,3.0,6.0,95,0.00,,---,0.00,VWS V14.01,2013-05-05 07:06:00,
2013-05-05 03:10:00,46.9,45.5,29.81,SE,144,4.0,10.0,95,0.00,,---,0.00,VWS V14.01,2013-05-05 07:10:00,
2013-05-05 03:11:00,46.7,45.3,29.82,ESE,122,0.0,2.0,95,0.00,,---,0.00,VWS V14.01,2013-05-05 07:11:00,
2013-05-05 03:15:00,46.9,45.5,29.81,East,90,3.0,8.0,95,0.00,,---,0.00,VWS V14.01,2013-05-05 07:15:00,
2013-05-05 03:16:00,46.7,45.3,29.81,ESE,121,0.0,1.0,95,0.00,,---,0.00,VWS V14.01,2013-05-05 07:16:00,
2013-05-05 03:20:00,46.9,45.5,29.81,ESE,112,2.0,10.0,95,0.00,,---,0.00,VWS V14.01,2013-05-05 07:20:00,
2013-05-05 03:21:00,46.7,45.3,29.81,South,169,2.0,4.0,95,0.00,,---,0.00,VWS V14.01,2013-05-05 07:21:00,
2013-05-05 03:25:00,46.9,45.5,29.82,ENE,78,1.0,10.0,95,0.00,,---,0.00,VWS V14.01,2013-05-05 07:25:00,
2013-05-05 03:26:00,46.7,45.3,29.81,ESE,122,2.0,10.0,95,0.00,,---,0.00,VWS V14.01,2013-05-05 07:26:00,
2013-05-05 03:30:00,47.0,45.7,29.82,ENE,65,1.0,6.0,95,0.00,,---,0.00,VWS V14.01,2013-05-05 07:30:00,
2013-05-05 03:31:00,46.7,45.3,29.81,WNW,301,1.0,5.0,95,0.00,,---,0.00,VWS V14.01,2013-05-05 07:31:00,
2013-05-05 03:35:00,47.0,45.7,29.82,NW,304,0.0,6.0,95,0.00,,---,0.00,VWS V14.01,2013-05-05 07:35:00,
2013-05-05 03:36:00,46.7,45.3,29.81,ESE,113,0.0,2.0,95,0.00,,---,0.00,VWS V14.01,2013-05-05 07:36:00,
2013-05-05 03:40:00,47.0,45.7,29.82,SSE,163,1.0,15.0,95,0.00,,---,0.00,VWS V14.01,2013-05-05 07:40:00,
2013-05-05 03:41:00,46.6,45.2,29.81,ENE,76,2.0,2.0,95,0.00,,---,0.00,VWS V14.01,2013-05-05 07:41:00,
2013-05-05 03:45:00,46.9,45.5,29.82,ESE,114,0.0,3.0,95,0.00,,---,0.00,VWS V14.01,2013-05-05 07:45:00,
2013-05-05 03:46:00,46.6,45.2,29.81,West,264,2.0,3.0,95,0.00,,---,0.00,VWS V14.01,2013-05-05 07:46:00,
2013-05-05 03:50:00,46.8,45.2,29.82,SE,131,1.0,10.0,94,0.00,,---,0.00,VWS V14.01,2013-05-05 07:50:00,
2013-05-05 03:51:00,46.6,45.5,29.81,WNW,295,1.0,4.0,96,0.00,,---,0.00,VWS V14.01,2013-05-05 07:51:00,
2013-05-05 03:55:00,46.9,45.3,29.81,East,101,8.0,10.0,94,0.00,,---,0.00,VWS V14.01,2013-05-05 07:55:00,
2013-05-05 03:56:00,46.5,45.4,29.81,NW,316,0.0,1.0,96,0.00,,---,0.00,VWS V14.01,2013-05-05 07:56:00,
2013-05-05 04:00:00,46.8,45.2,29.81,West,274,0.0,8.0,94,0.00,,---,0.00,VWS V14.01,2013-05-05 08:00:00,
2013-05-05 04:01:00,46.5,45.4,29.80,NE,52,1.0,2.0,96,0.00,,---,0.00,VWS V14.01,2013-05-05 08:01:00,
2013-05-05 04:05:00,46.7,45.3,29.81,SW,235,0.0,6.0,95,0.00,,---,0.00,VWS V14.01,2013-05-05 08:05:00,
2013-05-05 04:06:00,46.5,45.4,29.81,WNW,289,0.0,3.0,96,0.00,,---,0.00,VWS V14.01,2013-05-05 08:06:00,
2013-05-05 04:10:00,46.7,45.1,29.81,NW,314,1.0,6.0,94,0.00,,---,0.00,VWS V14.01,2013-05-05 08:10:00,
2013-05-05 04:11:00,46.5,45.4,29.81,West,270,1.0,2.0,96,0.00,,---,0.00,VWS V14.01,2013-05-05 08:11:00,
2013-05-05 04:15:00,46.7,45.3,29.82,ESE,121,1.0,3.0,95,0.00,,---,0.00,VWS V14.01,2013-05-05 08:15:00,
2013-05-05 04:16:00,46.5,45.4,29.81,NE,50,1.0,2.0,96,0.00,,---,0.00,VWS V14.01,2013-05-05 08:16:00,
2013-05-05 04:20:00,46.7,45.3,29.81,SSE,153,0.0,8.0,95,0.00,,---,0.00,VWS V14.01,2013-05-05 08:20:00,
2013-05-05 04:21:00,46.5,45.7,29.80,ENE,60,2.0,5.0,97,0.00,,---,0.00,VWS V14.01,2013-05-05 08:21:00,
2013-05-05 04:25:00,46.7,45.3,29.81,NW,304,0.0,4.0,95,0.00,,---,0.00,VWS V14.01,2013-05-05 08:25:00,
2013-05-05 04:26:00,46.5,45.7,29.81,North,352,0.0,2.0,97,0.00,,---,0.00,VWS V14.01,2013-05-05 08:26:00,
2013-05-05 04:30:00,46.7,45.3,29.81,SSE,166,5.0,10.0,95,0.00,,---,0.00,VWS V14.01,2013-05-05 08:30:00,
2013-05-05 04:31:00,46.6,45.8,29.81,NNW,330,1.0,4.0,97,0.00,,---,0.00,VWS V14.01,2013-05-05 08:31:00,
2013-05-05 04:35:00,46.7,45.3,29.81,East,84,1.0,5.0,95,0.00,,---,0.00,VWS V14.01,2013-05-05 08:35:00,
2013-05-05 04:36:00,46.6,45.8,29.82,West,274,1.0,1.0,97,0.00,,---,0.00,VWS V14.01,2013-05-05 08:36:00,
2013-05-05 04:40:00,46.6,45.2,29.81,NE,38,0.0,8.0,95,0.00,,---,0.00,VWS V14.01,2013-05-05 08:40:00,
2013-05-05 04:41:00,46.6,45.8,29.82,ENE,77,1.0,5.0,97,0.00,,---,0.00,VWS V14.01,2013-05-05 08:41:00,
2013-05-05 04:45:00,46.6,45.2,29.81,ESE,103,3.0,3.0,95,0.00,,---,0.00,VWS V14.01,2013-05-05 08:45:00,
2013-05-05 04:46:00,46.7,46.2,29.80,WSW,249,0.0,2.0,98,0.00,,---,0.00,VWS V14.01,2013-05-05 08:46:00,
2013-05-05 04:50:00,46.6,45.5,29.81,SW,222,0.0,3.0,96,0.00,,---,0.00,VWS V14.01,2013-05-05 08:50:00,
2013-05-05 04:51:00,46.7,46.2,29.80,ENE,73,3.0,3.0,98,0.00,,---,0.00,VWS V14.01,2013-05-05 08:51:00,
2013-05-05 04:55:00,46.5,45.4,29.81,WNW,295,0.0,4.0,96,0.00,,---,0.00,VWS V14.01,2013-05-05 08:55:00,
2013-05-05 04:56:00,46.7,46.2,29.80,East,82,3.0,3.0,98,0.00,,---,0.00,VWS V14.01,2013-05-05 08:56:00,
2013-05-05 05:00:00,46.5,45.4,29.80,WSW,250,0.0,2.0,96,0.00,,---,0.00,VWS V14.01,2013-05-05 09:00:00,
2013-05-05 05:01:00,46.7,46.2,29.80,East,86,1.0,1.0,98,0.00,,---,0.00,VWS V14.01,2013-05-05 09:01:00,
2013-05-05 05:05:00,46.5,45.4,29.81,West,269,1.0,5.0,96,0.00,,---,0.00,VWS V14.01,2013-05-05 09:05:00,
2013-05-05 05:06:00,46.7,46.2,29.80,East,85,0.0,1.0,98,0.00,,---,0.00,VWS V14.01,2013-05-05 09:06:00,
2013-05-05 05:10:00,46.5,45.4,29.81,SW,219,2.0,7.0,96,0.00,,---,0.00,VWS V14.01,2013-05-05 09:10:00,
2013-05-05 05:11:00,46.8,46.3,29.79,East,83,0.0,0.0,98,0.00,,---,0.00,VWS V14.01,2013-05-05 09:11:00,
2013-05-05 05:15:00,46.5,45.4,29.81,NE,49,2.0,2.0,96,0.00,,---,0.00,VWS V14.01,2013-05-05 09:15:00,
2013-05-05 05:16:00,46.8,46.3,29.78,East,83,0.0,0.0,98,0.00,,---,0.00,VWS V14.01,2013-05-05 09:16:00,
2013-05-05 05:20:00,46.5,45.7,29.80,WSW,246,5.0,6.0,97,0.00,,---,0.00,VWS V14.01,2013-05-05 09:20:00,
2013-05-05 05:21:00,46.8,46.3,29.79,WNW,301,0.0,1.0,98,0.00,,---,0.00,VWS V14.01,2013-05-05 09:21:00,
2013-05-05 05:25:00,46.5,45.7,29.80,North,350,2.0,5.0,97,0.00,,---,0.00,VWS V14.01,2013-05-05 09:25:00,
2013-05-05 05:26:00,46.7,46.2,29.79,WNW,301,0.0,0.0,98,0.00,,---,0.00,VWS V14.01,2013-05-05 09:26:00,
2013-05-05 05:30:00,46.6,45.8,29.81,North,5,1.0,2.0,97,0.00,,---,0.00,VWS V14.01,2013-05-05 09:30:00,
2013-05-05 05:31:00,46.7,46.2,29.80,East,92,0.0,1.0,98,0.00,,---,0.00,VWS V14.01,2013-05-05 09:31:00,
2013-05-05 05:35:00,46.6,45.8,29.81,West,274,0.0,4.0,97,0.00,,---,0.00,VWS V14.01,2013-05-05 09:35:00,
2013-05-05 05:36:00,46.8,46.3,29.80,North,8,0.0,2.0,98,0.00,,---,0.00,VWS V14.01,2013-05-05 09:36:00,
2013-05-05 05:40:00,46.6,45.8,29.82,ENE,73,5.0,5.0,97,0.00,,---,0.00,VWS V14.01,2013-05-05 09:40:00,
2013-05-05 05:41:00,46.8,46.3,29.80,North,6,0.0,0.0,98,0.00,,---,0.00,VWS V14.01,2013-05-05 09:41:00,
2013-05-05 05:45:00,46.7,46.2,29.80,West,259,2.0,5.0,98,0.00,,---,0.00,VWS V14.01,2013-05-05 09:45:00,
2013-05-05 05:46:00,46.8,46.3,29.79,North,6,0.0,0.0,98,0.00,,---,0.00,VWS V14.01,2013-05-05 09:46:00,
2013-05-05 05:50:00,46.7,46.2,29.80,ENE,73,2.0,2.0,98,0.00,,---,0.00,VWS V14.01,2013-05-05 09:50:00,
2013-05-05 05:51:00,46.9,46.4,29.79,North,6,0.0,0.0,98,0.00,,---,0.00,VWS V14.01,2013-05-05 09:51:00,
2013-05-05 05:55:00,46.6,46.1,29.80,NE,44,1.0,3.0,98,0.00,,---,0.00,VWS V14.01,2013-05-05 09:55:00,
2013-05-05 05:56:00,46.9,46.4,29.80,North,8,1.0,1.0,98,0.00,,---,0.00,VWS V14.01,2013-05-05 09:56:00,
2013-05-05 06:00:00,46.7,46.2,29.80,East,91,0.0,3.0,98,0.00,,---,0.00,VWS V14.01,2013-05-05 10:00:00,
2013-05-05 06:01:00,47.0,46.5,29.80,NNE,23,0.0,1.0,98,0.00,,---,0.00,VWS V14.01,2013-05-05 10:01:00,
2013-05-05 06:05:00,46.7,46.2,29.80,East,85,0.0,1.0,98,0.00,,---,0.00,VWS V14.01,2013-05-05 10:05:00,
2013-05-05 06:06:00,47.0,46.7,29.80,NE,34,2.0,2.0,99,0.00,,---,0.00,VWS V14.01,2013-05-05 10:06:00,
2013-05-05 06:10:00,46.8,46.3,29.80,East,83,0.0,1.0,98,0.00,,---,0.00,VWS V14.01,2013-05-05 10:10:00,
2013-05-05 06:11:00,47.1,46.8,29.80,NNE,20,0.0,0.0,99,0.00,,---,0.00,VWS V14.01,2013-05-05 10:11:00,
2013-05-05 06:15:00,46.8,46.3,29.79,East,84,0.0,0.0,98,0.00,,---,0.00,VWS V14.01,2013-05-05 10:15:00,
2013-05-05 06:16:00,47.2,46.9,29.80,North,359,1.0,1.0,99,0.00,,---,0.00,VWS V14.01,2013-05-05 10:16:00,
2013-05-05 06:20:00,46.8,46.3,29.79,WNW,300,0.0,1.0,98,0.00,,---,0.00,VWS V14.01,2013-05-05 10:20:00,
2013-05-05 06:21:00,47.2,46.9,29.80,North,359,0.0,1.0,99,0.00,,---,0.00,VWS V14.01,2013-05-05 10:21:00,
2013-05-05 06:25:00,46.8,46.3,29.79,WNW,301,0.0,1.0,98,0.00,,---,0.00,VWS V14.01,2013-05-05 10:25:00,
2013-05-05 06:26:00,47.2,46.9,29.81,NNE,15,1.0,1.0,99,0.00,,---,0.00,VWS V14.01,2013-05-05 10:26:00,
2013-05-05 06:30:00,46.7,46.2,29.80,East,92,0.0,2.0,98,0.00,,---,0.00,VWS V14.01,2013-05-05 10:30:00,
2013-05-05 06:31:00,47.2,46.9,29.81,East,91,1.0,2.0,99,0.00,,---,0.00,VWS V14.01,2013-05-05 10:31:00,
2013-05-05 06:35:00,46.8,46.3,29.80,North,358,1.0,1.0,98,0.00,,---,0.00,VWS V14.01,2013-05-05 10:35:00,
2013-05-05 06:36:00,47.2,46.9,29.81,NNE,29,1.0,2.0,99,0.00,,---,0.00,VWS V14.01,2013-05-05 10:36:00,
2013-05-05 06:40:00,46.8,46.3,29.80,North,6,0.0,2.0,98,0.00,,---,0.00,VWS V14.01,2013-05-05 10:40:00,
2013-05-05 06:41:00,47.3,47.0,29.81,NNE,29,0.0,0.0,99,0.00,,---,0.00,VWS V14.01,2013-05-05 10:41:00,
2013-05-05 06:45:00,46.9,46.4,29.80,North,6,0.0,0.0,98,0.00,,---,0.00,VWS V14.01,2013-05-05 10:45:00,
2013-05-05 06:46:00,47.3,47.0,29.80,NE,37,0.0,0.0,99,0.00,,---,0.00,VWS V14.01,2013-05-05 10:46:00,
2013-05-05 06:50:00,46.9,46.4,29.79,North,6,0.0,0.0,98,0.00,,---,0.00,VWS V14.01,2013-05-05 10:50:00,
2013-05-05 06:51:00,47.3,47.0,29.81,NE,37,0.0,0.0,99,0.00,,---,0.00,VWS V14.01,2013-05-05 10:51:00,
2013-05-05 06:55:00,46.9,46.4,29.80,North,6,0.0,0.0,98,0.00,,---,0.00,VWS V14.01,2013-05-05 10:55:00,
2013-05-05 06:56:00,47.4,47.1,29.81,NE,37,0.0,0.0,99,0.00,,---,0.00,VWS V14.01,2013-05-05 10:56:00,
2013-05-05 07:00:00,47.0,46.7,29.80,NNE,23,0.0,3.0,99,0.00,,---,0.00,VWS V14.01,2013-05-05 11:00:00,
2013-05-05 07:01:00,47.5,47.2,29.81,East,80,2.0,2.0,99,0.00,,---,0.00,VWS V14.01,2013-05-05 11:01:00,
2013-05-05 07:05:00,47.0,46.7,29.81,NNE,17,0.0,2.0,99,0.00,,---,0.00,VWS V14.01,2013-05-05 11:05:00,
2013-05-05 07:06:00,47.5,47.2,29.81,NE,50,0.0,0.0,99,0.00,,---,0.00,VWS V14.01,2013-05-05 11:06:00,
2013-05-05 07:10:00,47.1,46.8,29.80,NNE,20,0.0,2.0,99,0.00,,---,0.00,VWS V14.01,2013-05-05 11:10:00,
2013-05-05 07:11:00,47.5,47.2,29.81,NE,49,0.0,1.0,99,0.00,,---,0.00,VWS V14.01,2013-05-05 11:11:00,
2013-05-05 07:15:00,47.1,46.8,29.80,NNE,20,1.0,1.0,99,0.00,,---,0.00,VWS V14.01,2013-05-05 11:15:00,
2013-05-05 07:16:00,47.5,47.2,29.81,NE,56,0.0,0.0,99,0.00,,---,0.00,VWS V14.01,2013-05-05 11:16:00,
2013-05-05 07:20:00,47.2,46.9,29.80,North,358,0.0,1.0,99,0.00,,---,0.00,VWS V14.01,2013-05-05 11:20:00,
2013-05-05 07:21:00,47.6,47.3,29.81,NE,56,1.0,1.0,99,0.00,,---,0.00,VWS V14.01,2013-05-05 11:21:00,
2013-05-05 07:25:00,47.2,46.9,29.81,NNE,15,0.0,3.0,99,0.00,,---,0.00,VWS V14.01,2013-05-05 11:25:00,
2013-05-05 07:26:00,47.7,47.4,29.82,NNW,329,0.0,0.0,99,0.00,,---,0.00,VWS V14.01,2013-05-05 11:26:00,
2013-05-05 07:30:00,47.2,46.9,29.81,ENE,64,2.0,3.0,99,0.00,,---,0.00,VWS V14.01,2013-05-05 11:30:00,
2013-05-05 07:31:00,47.7,47.4,29.82,NE,34,0.0,0.0,99,0.00,,---,0.00,VWS V14.01,2013-05-05 11:31:00,
2013-05-05 07:35:00,47.2,46.9,29.81,East,92,0.0,3.0,99,0.00,,---,0.00,VWS V14.01,2013-05-05 11:35:00,
2013-05-05 07:36:00,47.7,47.4,29.82,NNE,32,0.0,0.0,99,0.00,,---,0.00,VWS V14.01,2013-05-05 11:36:00,
2013-05-05 07:40:00,47.2,46.9,29.81,NNE,29,0.0,2.0,99,0.00,,---,0.00,VWS V14.01,2013-05-05 11:40:00,
2013-05-05 07:41:00,47.8,47.5,29.82,NNE,20,0.0,0.0,99,0.00,,---,0.00,VWS V14.01,2013-05-05 11:41:00,
2013-05-05 07:45:00,47.3,47.0,29.80,NE,37,0.0,2.0,99,0.00,,---,0.00,VWS V14.01,2013-05-05 11:45:00,
2013-05-05 07:46:00,47.8,47.5,29.82,NNE,20,0.0,0.0,99,0.00,,---,0.00,VWS V14.01,2013-05-05 11:46:00,
2013-05-05 07:50:00,47.3,47.0,29.81,NE,37,0.0,1.0,99,0.00,,---,0.00,VWS V14.01,2013-05-05 11:50:00,
2013-05-05 07:51:00,47.9,47.6,29.81,NNE,20,1.0,1.0,99,0.00,,---,0.00,VWS V14.01,2013-05-05 11:51:00,
2013-05-05 07:55:00,47.4,47.1,29.81,NE,37,0.0,1.0,99,0.00,,---,0.00,VWS V14.01,2013-05-05 11:55:00,
2013-05-05 07:56:00,47.9,47.6,29.82,NNE,20,1.0,2.0,99,0.00,,---,0.00,VWS V14.01,2013-05-05 11:56:00,
2013-05-05 08:00:00,47.5,47.2,29.81,East,80,2.0,2.0,99,0.00,,---,0.00,VWS V14.01,2013-05-05 12:00:00,
2013-05-05 08:01:00,47.9,47.6,29.83,ENE,60,0.0,2.0,99,0.00,,---,0.00,VWS V14.01,2013-05-05 12:01:00,
2013-05-05 08:05:00,47.5,47.2,29.82,NE,50,0.0,2.0,99,0.00,,---,0.00,VWS V14.01,2013-05-05 12:05:00,
2013-05-05 08:06:00,47.9,47.6,29.82,NE,55,0.0,0.0,99,0.00,,---,0.00,VWS V14.01,2013-05-05 12:06:00,
2013-05-05 08:10:00,47.5,47.2,29.81,NE,50,0.0,1.0,99,0.00,,---,0.00,VWS V14.01,2013-05-05 12:10:00,
2013-05-05 08:11:00,47.9,47.6,29.82,NW,319,1.0,1.0,99,0.00,,---,0.00,VWS V14.01,2013-05-05 12:11:00,
2013-05-05 08:15:00,47.5,47.2,29.81,ENE,69,0.0,1.0,99,0.00,,---,0.00,VWS V14.01,2013-05-05 12:15:00,
2013-05-05 08:16:00,47.9,47.6,29.82,NW,321,0.0,0.0,99,0.00,,---,0.00,VWS V14.01,2013-05-05 12:16:00,
2013-05-05 08:20:00,47.6,47.3,29.82,ENE,57,0.0,0.0,99,0.00,,---,0.00,VWS V14.01,2013-05-05 12:20:00,
2013-05-05 08:21:00,47.9,47.6,29.82,NW,322,0.0,0.0,99,0.00,,---,0.00,VWS V14.01,2013-05-05 12:21:00,
2013-05-05 08:25:00,47.7,47.4,29.81,NNW,328,0.0,2.0,99,0.00,,---,0.00,VWS V14.01,2013-05-05 12:25:00,
2013-05-05 08:26:00,47.9,47.6,29.82,NW,323,0.0,1.0,99,0.00,,---,0.00,VWS V14.01,2013-05-05 12:26:00,
2013-05-05 08:30:00,47.7,47.4,29.82,NNE,33,0.0,1.0,99,0.00,,---,0.00,VWS V14.01,2013-05-05 12:30:00,
2013-05-05 08:31:00,48.0,47.7,29.82,NNW,340,0.0,0.0,99,0.00,,---,0.00,VWS V14.01,2013-05-05 12:31:00,
2013-05-05 08:35:00,47.7,47.4,29.82,NNE,32,0.0,1.0,99,0.00,,---,0.00,VWS V14.01,2013-05-05 12:35:00,
2013-05-05 08:36:00,48.0,47.7,29.82,NE,41,0.0,1.0,99,0.00,,---,0.00,VWS V14.01,2013-05-05 12:36:00,
2013-05-05 08:40:00,47.8,47.5,29.82,NNE,20,0.0,1.0,99,0.00,,---,0.00,VWS V14.01,2013-05-05 12:40:00,
2013-05-05 08:41:00,48.1,47.8,29.83,NE,39,0.0,0.0,99,0.00,,---,0.00,VWS V14.01,2013-05-05 12:41:00,
2013-05-05 08:45:00,47.8,47.5,29.82,NNE,20,0.0,0.0,99,0.00,,---,0.00,VWS V14.01,2013-05-05 12:45:00,
2013-05-05 08:46:00,48.2,47.9,29.83,NE,40,0.0,0.0,99,0.00,,---,0.00,VWS V14.01,2013-05-05 12:46:00,
2013-05-05 08:50:00,47.8,47.5,29.82,NNE,20,0.0,0.0,99,0.00,,---,0.00,VWS V14.01,2013-05-05 12:50:00,
2013-05-05 08:51:00,48.3,48.0,29.83,NE,43,1.0,2.0,99,0.00,,---,0.00,VWS V14.01,2013-05-05 12:51:00,
2013-05-05 08:55:00,47.9,47.6,29.82,NNE,20,1.0,1.0,99,0.00,,---,0.00,VWS V14.01,2013-05-05 12:55:00,
2013-05-05 08:56:00,48.4,48.1,29.82,NE,41,0.0,0.0,99,0.00,,---,0.00,VWS V14.01,2013-05-05 12:56:00,
2013-05-05 09:00:00,47.9,47.6,29.83,NNE,32,1.0,2.0,99,0.00,,---,0.00,VWS V14.01,2013-05-05 13:00:00,
2013-05-05 09:01:00,48.6,48.3,29.82,NE,41,0.0,0.0,99,0.00,,---,0.00,VWS V14.01,2013-05-05 13:01:00,
2013-05-05 09:05:00,47.9,47.6,29.83,NE,55,0.0,2.0,99,0.00,,---,0.00,VWS V14.01,2013-05-05 13:05:00,
2013-05-05 09:06:00,48.6,48.3,29.82,NE,39,0.0,0.0,99,0.00,,---,0.00,VWS V14.01,2013-05-05 13:06:00,
2013-05-05 09:10:00,47.9,47.6,29.82,NW,319,0.0,0.0,99,0.00,,---,0.00,VWS V14.01,2013-05-05 13:10:00,
2013-05-05 09:11:00,48.6,48.3,29.82,NNW,330,1.0,1.0,99,0.00,,---,0.00,VWS V14.01,2013-05-05 13:11:00,
2013-05-05 09:15:00,47.9,47.6,29.83,NW,321,0.0,1.0,99,0.00,,---,0.00,VWS V14.01,2013-05-05 13:15:00,
2013-05-05 09:16:00,48.7,48.4,29.82,NNW,332,0.0,1.0,99,0.00,,---,0.00,VWS V14.01,2013-05-05 13:16:00,
2013-05-05 09:20:00,47.9,47.6,29.82,NW,321,0.0,1.0,99,0.00,,---,0.00,VWS V14.01,2013-05-05 13:20:00,
2013-05-05 09:21:00,49.0,48.7,29.82,NNW,330,0.0,0.0,99,0.00,,---,0.00,VWS V14.01,2013-05-05 13:21:00,
2013-05-05 09:25:00,47.9,47.6,29.82,NW,322,0.0,0.0,99,0.00,,---,0.00,VWS V14.01,2013-05-05 13:25:00,
2013-05-05 09:26:00,49.0,48.7,29.82,East,85,2.0,2.0,99,0.00,,---,0.00,VWS V14.01,2013-05-05 13:26:00,
2013-05-05 09:30:00,48.0,47.7,29.83,NW,323,0.0,1.0,99,0.00,,---,0.00,VWS V14.01,2013-05-05 13:30:00,
2013-05-05 09:31:00,49.0,48.7,29.82,NE,53,2.0,2.0,99,0.00,,---,0.00,VWS V14.01,2013-05-05 13:31:00,
2013-05-05 09:35:00,48.0,47.7,29.82,NE,41,1.0,2.0,99,0.00,,---,0.00,VWS V14.01,2013-05-05 13:35:00,
2013-05-05 09:36:00,49.1,48.8,29.83,North,6,1.0,4.0,99,0.00,,---,0.00,VWS V14.01,2013-05-05 13:36:00,
2013-05-05 09:40:00,48.0,47.7,29.82,NE,40,0.0,1.0,99,0.00,,---,0.00,VWS V14.01,2013-05-05 13:40:00,
2013-05-05 09:41:00,49.3,49.0,29.83,North,360,1.0,1.0,99,0.00,,---,0.00,VWS V14.01,2013-05-05 13:41:00,
2013-05-05 09:45:00,48.1,47.8,29.83,NE,40,0.0,0.0,99,0.00,,---,0.00,VWS V14.01,2013-05-05 13:45:00,
2013-05-05 09:46:00,49.3,49.0,29.83,NNE,17,1.0,4.0,99,0.00,,---,0.00,VWS V14.01,2013-05-05 13:46:00,
2013-05-05 09:50:00,48.3,48.0,29.83,NE,39,0.0,1.0,99,0.00,,---,0.00,VWS V14.01,2013-05-05 13:50:00,
2013-05-05 09:51:00,49.3,49.0,29.82,North,3,0.0,1.0,99,0.00,,---,0.00,VWS V14.01,2013-05-05 13:51:00,
2013-05-05 09:55:00,48.3,48.0,29.82,NE,41,0.0,2.0,99,0.00,,---,0.00,VWS V14.01,2013-05-05 13:55:00,
2013-05-05 09:56:00,49.4,49.1,29.82,North,3,0.0,0.0,99,0.00,,---,0.00,VWS V14.01,2013-05-05 13:56:00,
2013-05-05 10:00:00,48.5,48.2,29.82,NE,41,0.0,0.0,99,0.00,,---,0.00,VWS V14.01,2013-05-05 14:00:00,
2013-05-05 10:02:00,49.5,49.2,29.82,North,3,0.0,1.0,99,0.00,,---,0.00,VWS V14.01,2013-05-05 14:02:00,
2013-05-05 10:05:00,48.6,48.3,29.82,NE,41,0.0,1.0,99,0.00,,---,0.00,VWS V14.01,2013-05-05 14:05:00,
2013-05-05 10:07:00,49.7,49.4,29.82,North,5,0.0,1.0,99,0.00,,---,0.00,VWS V14.01,2013-05-05 14:07:00,
2013-05-05 10:10:00,48.6,48.3,29.82,NNW,332,0.0,1.0,99,0.00,,---,0.00,VWS V14.01,2013-05-05 14:10:00,
2013-05-05 10:12:00,49.9,49.4,29.82,NE,48,1.0,1.0,98,0.00,,---,0.00,VWS V14.01,2013-05-05 14:12:00,
2013-05-05 10:15:00,48.7,48.4,29.82,NNW,330,0.0,1.0,99,0.00,,---,0.00,VWS V14.01,2013-05-05 14:15:00,
2013-05-05 10:17:00,50.0,49.5,29.82,NE,55,0.0,2.0,98,0.00,,---,0.00,VWS V14.01,2013-05-05 14:17:00,
2013-05-05 10:20:00,48.9,48.6,29.83,NNW,330,0.0,1.0,99,0.00,,---,0.00,VWS V14.01,2013-05-05 14:20:00,
2013-05-05 10:22:00,50.7,50.4,29.82,NE,55,0.0,0.0,99,0.00,,---,0.00,VWS V14.01,2013-05-05 14:22:00,
2013-05-05 10:25:00,49.0,48.7,29.82,NE,39,0.0,1.0,99,0.00,,---,0.00,VWS V14.01,2013-05-05 14:25:00,
2013-05-05 10:27:00,51.2,50.9,29.82,NE,56,1.0,1.0,99,0.00,,---,0.00,VWS V14.01,2013-05-05 14:27:00,
2013-05-05 10:30:00,48.9,48.6,29.82,NE,41,0.0,2.0,99,0.00,,---,0.00,VWS V14.01,2013-05-05 14:30:00,
2013-05-05 10:32:00,51.6,51.3,29.82,WSW,243,0.0,0.0,99,0.00,,---,0.00,VWS V14.01,2013-05-05 14:32:00,
2013-05-05 10:35:00,49.1,48.8,29.83,North,356,1.0,3.0,99,0.00,,---,0.00,VWS V14.01,2013-05-05 14:35:00,
2013-05-05 10:37:00,51.6,51.1,29.82,ENE,73,0.0,1.0,98,0.00,,---,0.00,VWS V14.01,2013-05-05 14:37:00,
2013-05-05 10:40:00,49.2,48.9,29.83,NE,44,0.0,4.0,99,0.00,,---,0.00,VWS V14.01,2013-05-05 14:40:00,
2013-05-05 10:42:00,51.5,50.4,29.82,ENE,72,1.0,1.0,96,0.00,,---,0.00,VWS V14.01,2013-05-05 14:42:00,
2013-05-05 10:45:00,49.3,49.0,29.83,NNE,19,4.0,4.0,99,0.00,,---,0.00,VWS V14.01,2013-05-05 14:45:00,
2013-05-05 10:47:00,51.6,50.8,29.82,ENE,70,0.0,1.0,97,0.00,,---,0.00,VWS V14.01,2013-05-05 14:47:00,
2013-05-05 10:50:00,49.2,48.9,29.83,North,4,0.0,4.0,99,0.00,,---,0.00,VWS V14.01,2013-05-05 14:50:00,
2013-05-05 10:52:00,51.9,50.8,29.82,NE,53,0.0,2.0,96,0.00,,---,0.00,VWS V14.01,2013-05-05 14:52:00,
2013-05-05 10:55:00,49.3,49.0,29.82,North,3,0.0,2.0,99,0.00,,---,0.00,VWS V14.01,2013-05-05 14:55:00,
2013-05-05 10:57:00,51.7,50.6,29.82,NE,50,1.0,1.0,96,0.00,,---,0.00,VWS V14.01,2013-05-05 14:57:00,
2013-05-05 11:00:00,49.5,49.2,29.82,North,3,0.0,1.0,99,0.00,,---,0.00,VWS V14.01,2013-05-05 15:00:00,
2013-05-05 11:02:00,51.6,50.2,29.82,NE,37,1.0,1.0,95,0.00,,---,0.00,VWS V14.01,2013-05-05 15:02:00,
2013-05-05 11:05:00,49.7,49.4,29.83,North,5,0.0,1.0,99,0.00,,---,0.00,VWS V14.01,2013-05-05 15:05:00,
2013-05-05 11:07:00,51.7,50.6,29.82,NNE,32,1.0,2.0,96,0.00,,---,0.00,VWS V14.01,2013-05-05 15:07:00,
2013-05-05 11:10:00,49.9,49.6,29.82,North,6,1.0,1.0,99,0.00,,---,0.00,VWS V14.01,2013-05-05 15:10:00,
2013-05-05 11:12:00,51.7,50.3,29.82,NNE,31,0.0,1.0,95,0.00,,---,0.00,VWS V14.01,2013-05-05 15:12:00,
2013-05-05 11:15:00,49.9,49.4,29.82,NE,39,0.0,1.0,98,0.00,,---,0.00,VWS V14.01,2013-05-05 15:15:00,
2013-05-05 11:17:00,52.4,51.6,29.82,NNE,32,0.0,0.0,97,0.00,,---,0.00,VWS V14.01,2013-05-05 15:17:00,
2013-05-05 11:20:00,50.4,50.1,29.82,NE,56,0.0,2.0,99,0.00,,---,0.00,VWS V14.01,2013-05-05 15:20:00,
2013-05-05 11:22:00,52.5,51.1,29.82,NNE,22,1.0,2.0,95,0.00,,---,0.00,VWS V14.01,2013-05-05 15:22:00,
2013-05-05 11:25:00,51.1,50.8,29.82,NE,55,0.0,1.0,99,0.00,,---,0.00,VWS V14.01,2013-05-05 15:25:00,
2013-05-05 11:27:00,52.8,51.4,29.82,NW,320,0.0,0.0,95,0.00,,---,0.00,VWS V14.01,2013-05-05 15:27:00,
2013-05-05 11:30:00,51.4,51.1,29.82,NE,54,0.0,1.0,99,0.00,,---,0.00,VWS V14.01,2013-05-05 15:30:00,
2013-05-05 11:32:00,53.2,51.8,29.82,NNE,26,1.0,1.0,95,0.00,,---,0.00,VWS V14.01,2013-05-05 15:32:00,
2013-05-05 11:35:00,51.6,51.1,29.82,ENE,73,0.0,1.0,98,0.00,,---,0.00,VWS V14.01,2013-05-05 15:35:00,
2013-05-05 11:37:00,53.2,51.5,29.82,NE,34,2.0,2.0,94,0.00,,---,0.00,VWS V14.01,2013-05-05 15:37:00,
2013-05-05 11:40:00,51.6,50.5,29.82,ENE,72,1.0,1.0,96,0.00,,---,0.00,VWS V14.01,2013-05-05 15:40:00,
2013-05-05 11:42:00,53.3,51.3,29.82,NNE,23,0.0,2.0,93,0.00,,---,0.00,VWS V14.01,2013-05-05 15:42:00,
2013-05-05 11:45:00,51.5,50.4,29.82,ENE,72,0.0,1.0,96,0.00,,---,0.00,VWS V14.01,2013-05-05 15:45:00,
2013-05-05 11:47:00,53.7,52.0,29.82,NW,308,1.0,1.0,94,0.00,,---,0.00,VWS V14.01,2013-05-05 15:47:00,
2013-05-05 11:50:00,51.8,51.0,29.82,ENE,71,0.0,1.0,97,0.00,,---,0.00,VWS V14.01,2013-05-05 15:50:00,
2013-05-05 11:52:00,53.8,52.1,29.82,NW,308,0.0,1.0,94,0.00,,---,0.00,VWS V14.01,2013-05-05 15:52:00,
2013-05-05 11:55:00,51.8,50.7,29.82,ENE,65,0.0,3.0,96,0.00,,---,0.00,VWS V14.01,2013-05-05 15:55:00,
2013-05-05 11:57:00,54.0,52.0,29.82,ENE,74,0.0,2.0,93,0.00,,---,0.00,VWS V14.01,2013-05-05 15:57:00,
2013-05-05 12:00:00,51.6,50.2,29.82,ENE,64,1.0,2.0,95,0.00,,---,0.00,VWS V14.01,2013-05-05 16:00:00,
2013-05-05 12:02:00,54.3,52.3,29.82,NNE,29,0.0,1.0,93,0.00,,---,0.00,VWS V14.01,2013-05-05 16:02:00,
2013-05-05 12:05:00,51.7,50.3,29.82,NNW,347,1.0,2.0,95,0.00,,---,0.00,VWS V14.01,2013-05-05 16:05:00,
2013-05-05 12:07:00,54.7,53.0,29.82,NNE,15,1.0,1.0,94,0.00,,---,0.00,VWS V14.01,2013-05-05 16:07:00,
2013-05-05 12:10:00,51.7,50.3,29.82,NE,37,0.0,2.0,95,0.00,,---,0.00,VWS V14.01,2013-05-05 16:10:00,
2013-05-05 12:12:00,55.1,52.8,29.81,NNE,15,0.0,1.0,92,0.00,,---,0.00,VWS V14.01,2013-05-05 16:12:00,
2013-05-05 12:15:00,52.1,51.3,29.82,NNE,33,0.0,1.0,97,0.00,,---,0.00,VWS V14.01,2013-05-05 16:15:00,
2013-05-05 12:17:00,55.2,52.6,29.81,North,355,0.0,1.0,91,0.00,,---,0.00,VWS V14.01,2013-05-05 16:17:00,
2013-05-05 12:20:00,52.5,50.8,29.82,ENE,66,2.0,3.0,94,0.00,,---,0.00,VWS V14.01,2013-05-05 16:20:00,
2013-05-05 12:22:00,55.8,53.5,29.81,North,355,0.0,0.0,92,0.00,,---,0.00,VWS V14.01,2013-05-05 16:22:00,
2013-05-05 12:25:00,52.6,51.2,29.82,NW,319,0.0,2.0,95,0.00,,---,0.00,VWS V14.01,2013-05-05 16:25:00,
2013-05-05 12:27:00,55.3,52.4,29.81,NW,323,0.0,1.0,90,0.00,,---,0.00,VWS V14.01,2013-05-05 16:27:00,
2013-05-05 12:30:00,53.0,51.6,29.82,NW,321,1.0,2.0,95,0.00,,---,0.00,VWS V14.01,2013-05-05 16:30:00,
2013-05-05 12:32:00,55.3,52.4,29.81,NNW,334,1.0,2.0,90,0.00,,---,0.00,VWS V14.01,2013-05-05 16:32:00,
2013-05-05 12:35:00,53.2,51.2,29.82,ENE,63,2.0,3.0,93,0.00,,---,0.00,VWS V14.01,2013-05-05 16:35:00,
2013-05-05 12:37:00,55.6,53.0,29.81,NNW,335,0.0,1.0,91,0.00,,---,0.00,VWS V14.01,2013-05-05 16:37:00,
2013-05-05 12:40:00,53.2,51.5,29.82,NNE,12,1.0,2.0,94,0.00,,---,0.00,VWS V14.01,2013-05-05 16:40:00,
2013-05-05 12:42:00,55.5,52.3,29.81,NW,318,2.0,2.0,89,0.00,,---,0.00,VWS V14.01,2013-05-05 16:42:00,
2013-05-05 12:45:00,53.7,52.3,29.82,NW,309,0.0,2.0,95,0.00,,---,0.00,VWS V14.01,2013-05-05 16:45:00,
2013-05-05 12:47:00,55.2,52.3,29.81,WNW,282,0.0,3.0,90,0.00,,---,0.00,VWS V14.01,2013-05-05 16:47:00,
2013-05-05 12:50:00,53.8,52.1,29.82,NW,308,1.0,1.0,94,0.00,,---,0.00,VWS V14.01,2013-05-05 16:50:00,
2013-05-05 12:52:00,55.3,53.0,29.81,WNW,282,2.0,2.0,92,0.00,,---,0.00,VWS V14.01,2013-05-05 16:52:00,
2013-05-05 12:55:00,54.0,52.0,29.82,NNE,27,2.0,2.0,93,0.00,,---,0.00,VWS V14.01,2013-05-05 16:55:00,
2013-05-05 12:57:00,55.1,52.5,29.82,WNW,295,0.0,1.0,91,0.00,,---,0.00,VWS V14.01,2013-05-05 16:57:00,
2013-05-05 13:00:00,54.2,52.5,29.82,NNE,32,0.0,2.0,94,0.00,,---,0.00,VWS V14.01,2013-05-05 17:00:00,
2013-05-05 13:02:00,55.1,52.5,29.81,NW,311,1.0,1.0,91,0.00,,---,0.00,VWS V14.01,2013-05-05 17:02:00,
2013-05-05 13:05:00,54.5,52.5,29.82,NNE,25,0.0,1.0,93,0.00,,---,0.00,VWS V14.01,2013-05-05 17:05:00,
2013-05-05 13:07:00,55.3,52.7,29.81,NW,315,0.0,0.0,91,0.00,,---,0.00,VWS V14.01,2013-05-05 17:07:00,
2013-05-05 13:10:00,55.0,53.0,29.82,NNE,15,1.0,1.0,93,0.00,,---,0.00,VWS V14.01,2013-05-05 17:10:00,
2013-05-05 13:12:00,55.8,52.6,29.81,NNW,347,1.0,1.0,89,0.00,,---,0.00,VWS V14.01,2013-05-05 17:12:00,
2013-05-05 13:15:00,55.2,52.6,29.82,North,356,0.0,1.0,91,0.00,,---,0.00,VWS V14.01,2013-05-05 17:15:00,
2013-05-05 13:17:00,55.7,52.5,29.81,NNE,18,0.0,0.0,89,0.00,,---,0.00,VWS V14.01,2013-05-05 17:17:00,
2013-05-05 13:20:00,55.5,52.9,29.81,North,355,0.0,1.0,91,0.00,,---,0.00,VWS V14.01,2013-05-05 17:20:00,
2013-05-05 13:22:00,55.5,52.3,29.81,NE,38,0.0,3.0,89,0.00,,---,0.00,VWS V14.01,2013-05-05 17:22:00,
2013-05-05 13:25:00,55.6,52.1,29.81,NW,307,1.0,2.0,88,0.00,,---,0.00,VWS V14.01,2013-05-05 17:25:00,
2013-05-05 13:27:00,55.6,52.1,29.81,East,82,1.0,3.0,88,0.00,,---,0.00,VWS V14.01,2013-05-05 17:27:00,
2013-05-05 13:30:00,55.4,52.8,29.81,NW,311,2.0,2.0,91,0.00,,---,0.00,VWS V14.01,2013-05-05 17:30:00,
2013-05-05 13:32:00,55.8,52.9,29.81,East,82,0.0,0.0,90,0.00,,---,0.00,VWS V14.01,2013-05-05 17:32:00,
2013-05-05 13:35:00,55.4,52.5,29.81,NNW,335,0.0,2.0,90,0.00,,---,0.00,VWS V14.01,2013-05-05 17:35:00,
2013-05-05 13:37:00,56.8,53.6,29.80,North,358,1.0,2.0,89,0.00,,---,0.00,VWS V14.01,2013-05-05 17:37:00,
2013-05-05 13:40:00,55.6,52.4,29.81,West,274,1.0,2.0,89,0.00,,---,0.00,VWS V14.01,2013-05-05 17:40:00,
2013-05-05 13:42:00,57.4,53.2,29.80,East,86,0.0,4.0,86,0.00,,---,0.00,VWS V14.01,2013-05-05 17:42:00,
2013-05-05 13:45:00,55.3,52.1,29.81,WNW,295,1.0,3.0,89,0.00,,---,0.00,VWS V14.01,2013-05-05 17:45:00,
2013-05-05 13:47:00,58.1,53.3,29.80,ENE,72,4.0,6.0,84,0.00,,---,0.00,VWS V14.01,2013-05-05 17:47:00,
2013-05-05 13:50:00,55.1,52.5,29.81,WNW,282,0.0,3.0,91,0.00,,---,0.00,VWS V14.01,2013-05-05 17:50:00,
2013-05-05 13:52:00,58.2,53.1,29.80,SSE,165,0.0,4.0,83,0.00,,---,0.00,VWS V14.01,2013-05-05 17:52:00,
2013-05-05 13:55:00,55.1,52.5,29.81,West,281,1.0,2.0,91,0.00,,---,0.00,VWS V14.01,2013-05-05 17:55:00,
2013-05-05 13:57:00,58.3,53.2,29.80,WNW,292,3.0,3.0,83,0.00,,---,0.00,VWS V14.01,2013-05-05 17:57:00,
2013-05-05 14:00:00,55.1,52.8,29.81,WNW,295,0.0,1.0,92,0.00,,---,0.00,VWS V14.01,2013-05-05 18:00:00,
2013-05-05 14:02:00,58.4,52.9,29.80,West,260,4.0,5.0,82,0.00,,---,0.00,VWS V14.01,2013-05-05 18:02:00,
2013-05-05 14:05:00,55.1,52.5,29.81,NW,314,0.0,2.0,91,0.00,,---,0.00,VWS V14.01,2013-05-05 18:05:00,
2013-05-05 14:07:00,58.0,52.9,29.80,NNE,26,1.0,3.0,83,0.00,,---,0.00,VWS V14.01,2013-05-05 18:07:00,
2013-05-05 14:10:00,55.6,52.7,29.81,NW,315,0.0,1.0,90,0.00,,---,0.00,VWS V14.01,2013-05-05 18:10:00,
2013-05-05 14:12:00,59.0,53.5,29.80,North,360,1.0,3.0,82,0.00,,---,0.00,VWS V14.01,2013-05-05 18:12:00,
2013-05-05 14:15:00,55.7,52.5,29.81,NNE,18,0.0,2.0,89,0.00,,---,0.00,VWS V14.01,2013-05-05 18:15:00,
2013-05-05 14:17:00,59.7,54.5,29.80,NNW,330,0.0,5.0,83,0.00,,---,0.00,VWS V14.01,2013-05-05 18:17:00,
2013-05-05 14:20:00,55.7,52.5,29.81,ENE,71,3.0,5.0,89,0.00,,---,0.00,VWS V14.01,2013-05-05 18:20:00,
2013-05-05 14:22:00,59.0,53.5,29.80,West,278,5.0,5.0,82,0.00,,---,0.00,VWS V14.01,2013-05-05 18:22:00,
2013-05-05 14:25:00,55.6,52.7,29.81,NNE,30,1.0,3.0,90,0.00,,---,0.00,VWS V14.01,2013-05-05 18:25:00,
2013-05-05 14:27:00,59.0,53.5,29.79,NNE,13,1.0,5.0,82,0.00,,---,0.00,VWS V14.01,2013-05-05 18:27:00,
2013-05-05 14:30:00,55.5,52.0,29.81,East,82,0.0,3.0,88,0.00,,---,0.00,VWS V14.01,2013-05-05 18:30:00,
2013-05-05 14:32:00,59.7,54.2,29.79,NNE,29,4.0,5.0,82,0.00,,---,0.00,VWS V14.01,2013-05-05 18:32:00,
2013-05-05 14:35:00,56.5,53.3,29.80,ENE,73,1.0,2.0,89,0.00,,---,0.00,VWS V14.01,2013-05-05 18:35:00,
2013-05-05 14:37:00,59.9,54.1,29.79,NNW,341,1.0,2.0,81,0.00,,---,0.00,VWS V14.01,2013-05-05 18:37:00,
2013-05-05 14:40:00,57.5,54.3,29.80,ESE,116,3.0,4.0,89,0.00,,---,0.00,VWS V14.01,2013-05-05 18:40:00,
2013-05-05 14:42:00,60.7,53.8,29.79,ENE,78,3.0,5.0,78,0.00,,---,0.00,VWS V14.01,2013-05-05 18:42:00,
2013-05-05 14:45:00,57.8,54.3,29.80,NNE,23,3.0,4.0,88,0.00,,---,0.00,VWS V14.01,2013-05-05 18:45:00,
2013-05-05 14:47:00,60.1,53.2,29.79,NNE,15,2.0,6.0,78,0.00,,---,0.00,VWS V14.01,2013-05-05 18:47:00,
2013-05-05 14:50:00,58.1,53.3,29.80,ENE,60,1.0,6.0,84,0.00,,---,0.00,VWS V14.01,2013-05-05 18:50:00,
2013-05-05 14:52:00,60.5,53.3,29.79,NW,304,2.0,4.0,77,0.00,,---,0.00,VWS V14.01,2013-05-05 18:52:00,
2013-05-05 14:55:00,58.3,52.8,29.80,East,85,2.0,5.0,82,0.00,,---,0.00,VWS V14.01,2013-05-05 18:55:00,
2013-05-05 14:57:00,60.4,53.5,29.79,West,262,3.0,5.0,78,0.00,,---,0.00,VWS V14.01,2013-05-05 18:57:00,
2013-05-05 15:00:00,58.6,53.5,29.80,West,273,4.0,5.0,83,0.00,,---,0.00,VWS V14.01,2013-05-05 19:00:00,
2013-05-05 15:02:00,60.4,52.5,29.79,WNW,296,1.0,5.0,75,0.00,,---,0.00,VWS V14.01,2013-05-05 19:02:00,
2013-05-05 15:05:00,58.0,52.9,29.80,NW,322,2.0,6.0,83,0.00,,---,0.00,VWS V14.01,2013-05-05 19:05:00,
2013-05-05 15:07:00,60.2,51.9,29.79,NW,308,4.0,5.0,74,0.00,,---,0.00,VWS V14.01,2013-05-05 19:07:00,
2013-05-05 15:10:00,58.5,53.7,29.80,ENE,63,2.0,3.0,84,0.00,,---,0.00,VWS V14.01,2013-05-05 19:10:00,
2013-05-05 15:12:00,60.8,52.5,29.78,NW,315,2.0,8.0,74,0.00,,---,0.00,VWS V14.01,2013-05-05 19:12:00,
2013-05-05 15:15:00,59.7,54.9,29.80,West,274,4.0,5.0,84,0.00,,---,0.00,VWS V14.01,2013-05-05 19:15:00,
2013-05-05 15:17:00,61.0,51.9,29.78,NNW,343,1.0,3.0,72,0.00,,---,0.00,VWS V14.01,2013-05-05 19:17:00,
2013-05-05 15:20:00,59.3,53.1,29.80,NW,309,3.0,5.0,80,0.00,,---,0.00,VWS V14.01,2013-05-05 19:20:00,
2013-05-05 15:22:00,61.2,51.0,29.78,West,280,3.0,4.0,69,0.00,,---,0.00,VWS V14.01,2013-05-05 19:22:00,
2013-05-05 15:25:00,58.7,54.2,29.79,NNE,33,3.0,5.0,85,0.00,,---,0.00,VWS V14.01,2013-05-05 19:25:00,
2013-05-05 15:27:00,60.9,50.3,29.78,NW,312,1.0,2.0,68,0.00,,---,0.00,VWS V14.01,2013-05-05 19:27:00,
2013-05-05 15:30:00,59.4,53.2,29.79,NW,325,0.0,6.0,80,0.00,,---,0.00,VWS V14.01,2013-05-05 19:30:00,
2013-05-05 15:32:00,61.9,52.4,29.78,ENE,60,1.0,2.0,71,0.00,,---,0.00,VWS V14.01,2013-05-05 19:32:00,
2013-05-05 15:35:00,59.7,54.2,29.79,ENE,70,2.0,5.0,82,0.00,,---,0.00,VWS V14.01,2013-05-05 19:35:00,
2013-05-05 15:37:00,62.8,52.1,29.77,NNW,329,1.0,3.0,68,0.00,,---,0.00,VWS V14.01,2013-05-05 19:37:00,
2013-05-05 15:40:00,60.6,54.4,29.79,NNW,332,3.0,3.0,80,0.00,,---,0.00,VWS V14.01,2013-05-05 19:40:00,
2013-05-05 15:42:00,62.4,50.9,29.77,West,266,0.0,3.0,66,0.00,,---,0.00,VWS V14.01,2013-05-05 19:42:00,
2013-05-05 15:45:00,60.2,53.3,29.79,NNE,23,0.0,6.0,78,0.00,,---,0.00,VWS V14.01,2013-05-05 19:45:00,
2013-05-05 15:47:00,62.9,52.2,29.77,WNW,288,2.0,2.0,68,0.00,,---,0.00,VWS V14.01,2013-05-05 19:47:00,
2013-05-05 15:50:00,60.5,54.3,29.79,West,281,3.0,7.0,80,0.00,,---,0.00,VWS V14.01,2013-05-05 19:50:00,
2013-05-05 15:52:00,62.8,51.7,29.77,NW,305,1.0,2.0,67,0.00,,---,0.00,VWS V14.01,2013-05-05 19:52:00,
2013-05-05 15:55:00,60.3,53.1,29.79,East,98,4.0,5.0,77,0.00,,---,0.00,VWS V14.01,2013-05-05 19:55:00,
2013-05-05 15:57:00,62.7,51.2,29.77,SSW,201,4.0,4.0,66,0.00,,---,0.00,VWS V14.01,2013-05-05 19:57:00,
2013-05-05 16:00:00,60.7,52.7,29.79,WSW,256,5.0,8.0,75,0.00,,---,0.00,VWS V14.01,2013-05-05 20:00:00,
2013-05-05 16:02:00,62.8,51.3,29.76,NW,326,2.0,5.0,66,0.00,,---,0.00,VWS V14.01,2013-05-05 20:02:00,
2013-05-05 16:05:00,60.3,52.0,29.79,NNW,333,3.0,8.0,74,0.00,,---,0.00,VWS V14.01,2013-05-05 20:05:00,
2013-05-05 16:07:00,62.8,52.1,29.76,WNW,300,3.0,3.0,68,0.00,,---,0.00,VWS V14.01,2013-05-05 20:07:00,
2013-05-05 16:10:00,60.5,53.6,29.78,NNE,13,2.0,5.0,78,0.00,,---,0.00,VWS V14.01,2013-05-05 20:10:00,
2013-05-05 16:12:00,63.9,52.7,29.76,NW,318,0.0,1.0,67,0.00,,---,0.00,VWS V14.01,2013-05-05 20:12:00,
2013-05-05 16:15:00,60.8,52.1,29.78,NNW,333,2.0,8.0,73,0.00,,---,0.00,VWS V14.01,2013-05-05 20:15:00,
2013-05-05 16:17:00,63.3,51.3,29.76,West,259,2.0,5.0,65,0.00,,---,0.00,VWS V14.01,2013-05-05 20:17:00,
2013-05-05 16:20:00,61.5,52.4,29.78,NW,312,4.0,6.0,72,0.00,,---,0.00,VWS V14.01,2013-05-05 20:20:00,
2013-05-05 16:22:00,62.7,51.2,29.75,NNW,330,1.0,6.0,66,0.00,,---,0.00,VWS V14.01,2013-05-05 20:22:00,
2013-05-05 16:25:00,60.7,50.1,29.78,WNW,288,2.0,6.0,68,0.00,,---,0.00,VWS V14.01,2013-05-05 20:25:00,
2013-05-05 16:27:00,63.1,51.2,29.75,NNW,342,2.0,7.0,65,0.00,,---,0.00,VWS V14.01,2013-05-05 20:27:00,
2013-05-05 16:30:00,61.3,50.7,29.78,NE,41,1.0,4.0,68,0.00,,---,0.00,VWS V14.01,2013-05-05 20:30:00,
2013-05-05 16:32:00,63.2,52.5,29.75,South,170,3.0,5.0,68,0.00,,---,0.00,VWS V14.01,2013-05-05 20:32:00,
2013-05-05 16:35:00,62.7,52.0,29.77,East,100,2.0,5.0,68,0.00,,---,0.00,VWS V14.01,2013-05-05 20:35:00,
2013-05-05 16:37:00,62.9,51.4,29.75,West,271,2.0,4.0,66,0.00,,---,0.00,VWS V14.01,2013-05-05 20:37:00,
2013-05-05 16:40:00,62.7,50.4,29.77,WSW,248,2.0,4.0,64,0.00,,---,0.00,VWS V14.01,2013-05-05 20:40:00,
2013-05-05 16:42:00,62.4,50.1,29.74,WSW,252,0.0,2.0,64,0.00,,---,0.00,VWS V14.01,2013-05-05 20:42:00,
2013-05-05 16:45:00,62.4,50.9,29.77,North,352,1.0,3.0,66,0.00,,---,0.00,VWS V14.01,2013-05-05 20:45:00,
2013-05-05 16:47:00,63.7,51.7,29.74,West,271,4.0,4.0,65,0.00,,---,0.00,VWS V14.01,2013-05-05 20:47:00,
2013-05-05 16:50:00,62.9,50.5,29.77,NW,318,1.0,7.0,64,0.00,,---,0.00,VWS V14.01,2013-05-05 20:50:00,
2013-05-05 16:52:00,63.2,50.4,29.74,West,266,2.0,5.0,63,0.00,,---,0.00,VWS V14.01,2013-05-05 20:52:00,
2013-05-05 16:55:00,62.6,50.3,29.77,SW,217,1.0,5.0,64,0.00,,---,0.00,VWS V14.01,2013-05-05 20:55:00,
2013-05-05 16:57:00,63.0,49.4,29.73,NW,314,2.0,3.0,61,0.00,,---,0.00,VWS V14.01,2013-05-05 20:57:00,
2013-05-05 17:00:00,62.7,51.6,29.76,NW,305,5.0,7.0,67,0.00,,---,0.00,VWS V14.01,2013-05-05 21:00:00,
2013-05-05 17:02:00,63.8,50.1,29.73,WNW,294,3.0,3.0,61,0.00,,---,0.00,VWS V14.01,2013-05-05 21:02:00,
2013-05-05 17:05:00,62.5,51.0,29.76,NNW,335,1.0,6.0,66,0.00,,---,0.00,VWS V14.01,2013-05-05 21:05:00,
2013-05-05 17:07:00,63.2,50.4,29.73,NNW,333,2.0,6.0,63,0.00,,---,0.00,VWS V14.01,2013-05-05 21:07:00,
2013-05-05 17:10:00,63.4,52.3,29.76,NW,311,1.0,4.0,67,0.00,,---,0.00,VWS V14.01,2013-05-05 21:10:00,
2013-05-05 17:12:00,63.1,51.6,29.74,NNW,334,2.0,2.0,66,0.00,,---,0.00,VWS V14.01,2013-05-05 21:12:00,
2013-05-05 17:15:00,63.9,51.5,29.76,West,260,3.0,7.0,64,0.00,,---,0.00,VWS V14.01,2013-05-05 21:15:00,
2013-05-05 17:17:00,63.3,53.0,29.74,WSW,249,7.0,7.0,69,0.00,,---,0.00,VWS V14.01,2013-05-05 21:17:00,
2013-05-05 17:20:00,62.7,51.2,29.75,West,281,2.0,5.0,66,0.00,,---,0.00,VWS V14.01,2013-05-05 21:20:00,
2013-05-05 17:22:00,62.8,53.3,29.74,WNW,285,7.0,7.0,71,0.00,,---,0.00,VWS V14.01,2013-05-05 21:22:00,
2013-05-05 17:25:00,62.9,51.4,29.75,NW,315,4.0,6.0,66,0.00,,---,0.00,VWS V14.01,2013-05-05 21:25:00,
2013-05-05 17:27:00,62.4,52.9,29.74,NW,318,2.0,10.0,71,0.00,,---,0.00,VWS V14.01,2013-05-05 21:27:00,
2013-05-05 17:30:00,63.1,52.0,29.75,West,280,1.0,7.0,67,0.00,,---,0.00,VWS V14.01,2013-05-05 21:30:00,
2013-05-05 17:32:00,62.4,53.6,29.74,WSW,239,2.0,3.0,73,0.00,,---,0.00,VWS V14.01,2013-05-05 21:32:00,
2013-05-05 17:35:00,62.9,51.0,29.75,West,278,2.0,6.0,65,0.00,,---,0.00,VWS V14.01,2013-05-05 21:35:00,
2013-05-05 17:37:00,62.7,53.2,29.74,WNW,293,4.0,6.0,71,0.00,,---,0.00,VWS V14.01,2013-05-05 21:37:00,
2013-05-05 17:40:00,62.5,50.2,29.75,WSW,251,1.0,4.0,64,0.00,,---,0.00,VWS V14.01,2013-05-05 21:40:00,
2013-05-05 17:42:00,62.2,53.1,29.74,NW,319,1.0,4.0,72,0.00,,---,0.00,VWS V14.01,2013-05-05 21:42:00,
2013-05-05 17:45:00,63.2,50.4,29.74,WSW,252,1.0,2.0,63,0.00,,---,0.00,VWS V14.01,2013-05-05 21:45:00,
2013-05-05 17:47:00,61.3,52.6,29.74,West,270,2.0,3.0,73,0.00,,---,0.00,VWS V14.01,2013-05-05 21:47:00,
2013-05-05 17:50:00,63.4,50.6,29.74,West,278,2.0,4.0,63,0.00,,---,0.00,VWS V14.01,2013-05-05 21:50:00,
2013-05-05 17:52:00,60.6,52.3,29.74,WNW,301,1.0,3.0,74,0.00,,---,0.00,VWS V14.01,2013-05-05 21:52:00,
2013-05-05 17:55:00,62.9,48.4,29.74,WSW,249,3.0,9.0,59,0.00,,---,0.00,VWS V14.01,2013-05-05 21:55:00,
2013-05-05 17:57:00,60.4,52.1,29.73,SE,139,2.0,2.0,74,0.00,,---,0.00,VWS V14.01,2013-05-05 21:57:00,
2013-05-05 18:00:00,63.6,50.4,29.73,NW,325,0.0,4.0,62,0.00,,---,0.00,VWS V14.01,2013-05-05 22:00:00,
2013-05-05 18:02:00,60.3,52.3,29.74,WNW,288,0.0,3.0,75,0.00,,---,0.00,VWS V14.01,2013-05-05 22:02:00,
2013-05-05 18:05:00,63.6,50.8,29.73,WNW,292,6.0,7.0,63,0.00,,---,0.00,VWS V14.01,2013-05-05 22:05:00,
2013-05-05 18:07:00,60.5,52.5,29.74,WSW,252,0.0,2.0,75,0.00,,---,0.00,VWS V14.01,2013-05-05 22:07:00,
2013-05-05 18:10:00,63.0,51.1,29.74,SSW,203,2.0,6.0,65,0.00,,---,0.00,VWS V14.01,2013-05-05 22:10:00,
2013-05-05 18:12:00,60.3,52.7,29.74,WNW,300,0.0,4.0,76,0.00,,---,0.00,VWS V14.01,2013-05-05 22:12:00,
2013-05-05 18:15:00,63.2,52.1,29.73,WSW,240,4.0,6.0,67,0.00,,---,0.00,VWS V14.01,2013-05-05 22:15:00,
2013-05-05 18:17:00,60.4,53.5,29.74,WNW,300,0.0,1.0,78,0.00,,---,0.00,VWS V14.01,2013-05-05 22:17:00,
2013-05-05 18:20:00,63.0,53.1,29.74,West,274,2.0,8.0,70,0.00,,---,0.00,VWS V14.01,2013-05-05 22:20:00,
2013-05-05 18:22:00,60.7,52.7,29.74,WNW,300,0.0,1.0,75,0.00,,---,0.00,VWS V14.01,2013-05-05 22:22:00,
2013-05-05 18:25:00,62.4,53.3,29.74,SSW,210,2.0,8.0,72,0.00,,---,0.00,VWS V14.01,2013-05-05 22:25:00,
2013-05-05 18:27:00,60.7,53.1,29.74,WNW,300,0.0,1.0,76,0.00,,---,0.00,VWS V14.01,2013-05-05 22:27:00,
2013-05-05 18:30:00,62.2,53.1,29.74,NNE,15,3.0,10.0,72,0.00,,---,0.00,VWS V14.01,2013-05-05 22:30:00,
2013-05-05 18:32:00,60.6,53.0,29.74,WNW,299,0.0,0.0,76,0.00,,---,0.00,VWS V14.01,2013-05-05 22:32:00,
2013-05-05 18:35:00,62.7,53.2,29.74,WSW,249,2.0,4.0,71,0.00,,---,0.00,VWS V14.01,2013-05-05 22:35:00,
2013-05-05 18:37:00,60.6,52.6,29.74,WNW,300,0.0,1.0,75,0.00,,---,0.00,VWS V14.01,2013-05-05 22:37:00,
2013-05-05 18:40:00,62.5,53.4,29.74,SW,214,1.0,6.0,72,0.00,,---,0.00,VWS V14.01,2013-05-05 22:40:00,
2013-05-05 18:42:00,60.4,54.5,29.74,WNW,300,0.0,0.0,81,0.00,,---,0.00,VWS V14.01,2013-05-05 22:42:00,
2013-05-05 18:45:00,61.6,52.5,29.74,NNW,342,3.0,7.0,72,0.00,,---,0.00,VWS V14.01,2013-05-05 22:45:00,
2013-05-05 18:47:00,59.7,54.2,29.76,East,98,10.0,10.0,82,0.00,,---,0.00,VWS V14.01,2013-05-05 22:47:00,
2013-05-05 18:50:00,60.8,52.1,29.74,NW,304,1.0,6.0,73,0.00,,---,0.00,VWS V14.01,2013-05-05 22:50:00,
2013-05-05 18:52:00,56.9,50.1,29.77,East,84,10.0,21.0,78,0.00,,---,0.00,VWS V14.01,2013-05-05 22:52:00,
2013-05-05 18:55:00,60.4,52.1,29.74,SW,228,0.0,3.0,74,0.00,,---,0.00,VWS V14.01,2013-05-05 22:55:00,
2013-05-05 18:57:00,54.1,49.1,29.78,ESE,122,9.0,18.0,83,0.00,,---,0.00,VWS V14.01,2013-05-05 22:57:00,
2013-05-05 19:00:00,60.3,52.0,29.74,WNW,283,1.0,5.0,74,0.00,,---,0.00,VWS V14.01,2013-05-05 23:00:00,
2013-05-05 19:02:00,52.5,48.8,29.77,ESE,104,4.0,10.0,87,0.00,,---,0.00,VWS V14.01,2013-05-05 23:02:00,
2013-05-05 19:05:00,60.3,52.7,29.74,NW,310,0.0,3.0,76,0.00,,---,0.00,VWS V14.01,2013-05-05 23:05:00,
2013-05-05 19:07:00,51.4,48.6,29.77,ESE,110,10.0,12.0,90,0.00,,---,0.00,VWS V14.01,2013-05-05 23:07:00,
2013-05-05 19:10:00,60.4,52.5,29.74,West,269,4.0,6.0,75,0.00,,---,0.00,VWS V14.01,2013-05-05 23:10:00,
2013-05-05 19:12:00,51.0,48.8,29.78,NW,321,1.0,6.0,92,0.00,,---,0.00,VWS V14.01,2013-05-05 23:12:00,
2013-05-05 19:15:00,60.3,53.1,29.74,WNW,300,0.0,4.0,77,0.00,,---,0.00,VWS V14.01,2013-05-05 23:15:00,
2013-05-05 19:17:00,50.7,48.8,29.79,NW,326,1.0,5.0,93,0.00,,---,0.00,VWS V14.01,2013-05-05 23:17:00,
2013-05-05 19:20:00,60.7,53.8,29.74,WNW,300,0.0,1.0,78,0.00,,---,0.00,VWS V14.01,2013-05-05 23:20:00,
2013-05-05 19:22:00,50.7,48.8,29.79,NW,325,0.0,3.0,93,0.00,,---,0.00,VWS V14.01,2013-05-05 23:22:00,
2013-05-05 19:25:00,60.7,53.1,29.74,WNW,300,0.0,1.0,76,0.00,,---,0.00,VWS V14.01,2013-05-05 23:25:00,
2013-05-05 19:27:00,50.6,48.9,29.80,NNE,13,0.0,3.0,94,0.00,,---,0.00,VWS V14.01,2013-05-05 23:27:00,
2013-05-05 19:30:00,60.7,52.7,29.74,WNW,300,0.0,1.0,75,0.00,,---,0.00,VWS V14.01,2013-05-05 23:30:00,
2013-05-05 19:32:00,50.6,48.9,29.80,ENE,63,1.0,4.0,94,0.00,,---,0.00,VWS V14.01,2013-05-05 23:32:00,
2013-05-05 19:35:00,60.7,52.7,29.74,WNW,300,0.0,1.0,75,0.00,,---,0.00,VWS V14.01,2013-05-05 23:35:00,
2013-05-05 19:37:00,50.4,48.7,29.80,North,356,0.0,2.0,94,0.00,,---,0.00,VWS V14.01,2013-05-05 23:37:00,
2013-05-05 19:40:00,60.4,53.9,29.74,WNW,300,0.0,1.0,79,0.00,,---,0.00,VWS V14.01,2013-05-05 23:40:00,
2013-05-05 19:42:00,50.4,48.7,29.79,NE,45,0.0,0.0,94,0.00,,---,0.00,VWS V14.01,2013-05-05 23:42:00,
2013-05-05 19:45:00,60.2,54.0,29.75,NNE,16,1.0,1.0,80,0.00,,---,0.00,VWS V14.01,2013-05-05 23:45:00,
2013-05-05 19:47:00,50.4,49.0,29.79,NE,44,0.0,0.0,95,0.00,,---,0.00,VWS V14.01,2013-05-05 23:47:00,
2013-05-05 19:50:00,58.4,51.2,29.76,NNW,338,3.0,15.0,77,0.00,,---,0.00,VWS V14.01,2013-05-05 23:50:00,
2013-05-05 19:52:00,50.4,49.0,29.79,NE,53,0.0,1.0,95,0.00,,---,0.00,VWS V14.01,2013-05-05 23:52:00,
2013-05-05 19:55:00,55.1,49.4,29.78,NNE,24,4.0,21.0,81,0.00,,---,0.00,VWS V14.01,2013-05-05 23:55:00,
2013-05-05 19:57:00,50.4,49.3,29.78,North,354,0.0,1.0,96,0.00,,---,0.00,VWS V14.01,2013-05-05 23:57:00,
2013-05-05 20:00:00,53.1,48.7,29.78,East,95,4.0,18.0,85,0.00,,---,0.00,VWS V14.01,2013-05-06 00:00:00,
2013-05-05 20:02:00,50.4,49.3,29.78,North,354,0.0,0.0,96,0.00,,---,0.00,VWS V14.01,2013-05-06 00:02:00,
2013-05-05 20:05:00,51.8,48.7,29.77,East,98,0.0,12.0,89,0.00,,---,0.00,VWS V14.01,2013-05-06 00:05:00,
2013-05-05 20:07:00,50.3,49.2,29.78,North,354,0.0,0.0,96,0.00,,---,0.00,VWS V14.01,2013-05-06 00:07:00,
2013-05-05 20:10:00,51.1,48.6,29.77,North,356,5.0,13.0,91,0.00,,---,0.00,VWS V14.01,2013-05-06 00:10:00,
2013-05-05 20:12:00,50.3,49.2,29.78,North,354,0.0,0.0,96,0.00,,---,0.00,VWS V14.01,2013-05-06 00:12:00,
2013-05-05 20:15:00,50.8,48.6,29.78,North,6,1.0,13.0,92,0.00,,---,0.00,VWS V14.01,2013-05-06 00:15:00,
2013-05-05 20:17:00,50.4,49.3,29.77,North,354,0.0,0.0,96,0.00,,---,0.00,VWS V14.01,2013-05-06 00:17:00,
2013-05-05 20:20:00,50.7,48.8,29.79,NE,56,3.0,5.0,93,0.00,,---,0.00,VWS V14.01,2013-05-06 00:20:00,
2013-05-05 20:22:00,50.3,49.2,29.76,North,360,0.0,1.0,96,0.00,,---,0.00,VWS V14.01,2013-05-06 00:22:00,
2013-05-05 20:25:00,50.6,48.7,29.79,North,5,0.0,5.0,93,0.00,,---,0.00,VWS V14.01,2013-05-06 00:25:00,
2013-05-05 20:27:00,50.2,49.1,29.77,SW,221,0.0,3.0,96,0.00,,---,0.00,VWS V14.01,2013-05-06 00:27:00,
2013-05-05 20:30:00,50.6,48.9,29.80,NE,36,1.0,3.0,94,0.00,,---,0.00,VWS V14.01,2013-05-06 00:30:00,
2013-05-05 20:32:00,50.2,49.1,29.78,NW,307,1.0,1.0,96,0.00,,---,0.00,VWS V14.01,2013-05-06 00:32:00,
2013-05-05 20:35:00,50.5,48.8,29.80,NNW,348,0.0,4.0,94,0.00,,---,0.00,VWS V14.01,2013-05-06 00:35:00,
2013-05-05 20:37:00,50.2,49.1,29.78,NW,308,0.0,0.0,96,0.00,,---,0.00,VWS V14.01,2013-05-06 00:37:00,
2013-05-05 20:40:00,50.5,48.8,29.79,NE,45,0.0,2.0,94,0.00,,---,0.00,VWS V14.01,2013-05-06 00:40:00,
2013-05-05 20:42:00,50.1,49.3,29.78,NW,307,0.0,1.0,97,0.00,,---,0.00,VWS V14.01,2013-05-06 00:42:00,
2013-05-05 20:45:00,50.4,49.0,29.79,NE,45,0.0,1.0,95,0.00,,---,0.00,VWS V14.01,2013-05-06 00:45:00,
2013-05-05 20:47:00,50.2,49.4,29.78,NW,307,0.0,0.0,97,0.00,,---,0.00,VWS V14.01,2013-05-06 00:47:00,
2013-05-05 20:50:00,50.4,49.0,29.79,NE,54,1.0,2.0,95,0.00,,---,0.00,VWS V14.01,2013-05-06 00:50:00,
2013-05-05 20:52:00,50.2,49.4,29.79,NW,307,0.0,0.0,97,0.00,,---,0.00,VWS V14.01,2013-05-06 00:52:00,
2013-05-05 20:55:00,50.4,49.3,29.78,NE,53,0.0,1.0,96,0.00,,---,0.00,VWS V14.01,2013-05-06 00:55:00,
2013-05-05 20:57:00,50.1,49.3,29.79,NW,308,0.0,0.0,97,0.00,,---,0.00,VWS V14.01,2013-05-06 00:57:00,
2013-05-05 21:00:00,50.4,49.3,29.78,North,354,0.0,1.0,96,0.00,,---,0.00,VWS V14.01,2013-05-06 01:00:00,
2013-05-05 21:02:00,50.1,49.3,29.80,NW,308,0.0,0.0,97,0.00,,---,0.00,VWS V14.01,2013-05-06 01:02:00,
2013-05-05 21:05:00,50.3,49.2,29.78,North,354,0.0,0.0,96,0.00,,---,0.00,VWS V14.01,2013-05-06 01:05:00,
2013-05-05 21:07:00,50.1,49.3,29.80,ENE,72,3.0,3.0,97,0.00,,---,0.00,VWS V14.01,2013-05-06 01:07:00,
2013-05-05 21:10:00,50.3,49.2,29.78,North,354,0.0,0.0,96,0.00,,---,0.00,VWS V14.01,2013-05-06 01:10:00,
2013-05-05 21:12:00,50.1,49.3,29.80,ENE,70,2.0,3.0,97,0.00,,---,0.00,VWS V14.01,2013-05-06 01:12:00,
2013-05-05 21:15:00,50.4,49.3,29.78,North,354,0.0,0.0,96,0.00,,---,0.00,VWS V14.01,2013-05-06 01:15:00,
2013-05-05 21:17:00,50.2,49.4,29.79,East,95,1.0,3.0,97,0.00,,---,0.00,VWS V14.01,2013-05-06 01:17:00,
2013-05-05 21:20:00,50.3,49.2,29.77,North,353,0.0,0.0,96,0.00,,---,0.00,VWS V14.01,2013-05-06 01:20:00,
2013-05-05 21:22:00,50.3,49.5,29.79,ENE,58,0.0,1.0,97,0.00,,---,0.00,VWS V14.01,2013-05-06 01:22:00,
2013-05-05 21:25:00,50.3,49.2,29.77,SSE,158,1.0,2.0,96,0.00,,---,0.00,VWS V14.01,2013-05-06 01:25:00,
2013-05-05 21:27:00,50.3,49.5,29.78,ENE,57,0.0,1.0,97,0.00,,---,0.00,VWS V14.01,2013-05-06 01:27:00,
2013-05-05 21:30:00,50.2,49.1,29.77,NW,308,0.0,3.0,96,0.00,,---,0.00,VWS V14.01,2013-05-06 01:30:00,
2013-05-05 21:32:00,50.3,49.5,29.78,NE,45,0.0,1.0,97,0.00,,---,0.00,VWS V14.01,2013-05-06 01:32:00,
2013-05-05 21:35:00,50.1,49.0,29.78,NW,308,0.0,1.0,96,0.00,,---,0.00,VWS V14.01,2013-05-06 01:35:00,
2013-05-05 21:37:00,50.2,49.4,29.78,North,354,0.0,1.0,97,0.00,,---,0.00,VWS V14.01,2013-05-06 01:37:00,
2013-05-05 21:40:00,50.1,49.0,29.78,NW,308,0.0,0.0,96,0.00,,---,0.00,VWS V14.01,2013-05-06 01:40:00,
2013-05-05 21:42:00,50.1,49.3,29.79,North,356,0.0,2.0,97,0.00,,---,0.00,VWS V14.01,2013-05-06 01:42:00,
2013-05-05 21:45:00,50.2,49.4,29.78,NW,307,0.0,1.0,97,0.00,,---,0.00,VWS V14.01,2013-05-06 01:45:00,
2013-05-05 21:47:00,50.0,49.2,29.79,North,352,0.0,1.0,97,0.00,,---,0.00,VWS V14.01,2013-05-06 01:47:00,
2013-05-05 21:50:00,50.1,49.3,29.79,NW,307,0.0,0.0,97,0.00,,---,0.00,VWS V14.01,2013-05-06 01:50:00,
2013-05-05 21:52:00,50.0,49.2,29.80,NNW,330,0.0,1.0,97,0.00,,---,0.00,VWS V14.01,2013-05-06 01:52:00,
2013-05-05 21:55:00,50.1,49.3,29.79,NW,308,0.0,0.0,97,0.00,,---,0.00,VWS V14.01,2013-05-06 01:55:00,
2013-05-05 21:57:00,49.9,49.1,29.80,NNW,330,0.0,0.0,97,0.00,,---,0.00,VWS V14.01,2013-05-06 01:57:00,
2013-05-05 22:00:00,50.1,49.3,29.79,NW,307,0.0,0.0,97,0.00,,---,0.00,VWS V14.01,2013-05-06 02:00:00,
2013-05-05 22:02:00,49.9,49.1,29.79,NNW,330,0.0,0.0,97,0.00,,---,0.00,VWS V14.01,2013-05-06 02:02:00,
2013-05-05 22:05:00,50.1,49.3,29.80,NNE,15,1.0,1.0,97,0.00,,---,0.00,VWS V14.01,2013-05-06 02:05:00,
2013-05-05 22:07:00,49.9,49.1,29.80,NNW,330,0.0,0.0,97,0.00,,---,0.00,VWS V14.01,2013-05-06 02:07:00,
2013-05-05 22:10:00,50.2,49.4,29.80,ENE,71,2.0,3.0,97,0.00,,---,0.00,VWS V14.01,2013-05-06 02:10:00,
2013-05-05 22:12:00,49.9,49.4,29.80,NNW,330,0.0,0.0,98,0.00,,---,0.00,VWS V14.01,2013-05-06 02:12:00,
2013-05-05 22:15:00,50.2,49.4,29.79,East,79,2.0,3.0,97,0.00,,---,0.00,VWS V14.01,2013-05-06 02:15:00,
2013-05-05 22:17:00,49.9,49.4,29.80,North,355,0.0,1.0,98,0.00,,---,0.00,VWS V14.01,2013-05-06 02:17:00,
2013-05-05 22:20:00,50.2,49.4,29.79,ENE,59,0.0,3.0,97,0.00,,---,0.00,VWS V14.01,2013-05-06 02:20:00,
2013-05-05 22:22:00,50.0,49.5,29.80,NW,326,0.0,1.0,98,0.00,,---,0.00,VWS V14.01,2013-05-06 02:22:00,
2013-05-05 22:25:00,50.3,49.5,29.78,ENE,60,1.0,1.0,97,0.00,,---,0.00,VWS V14.01,2013-05-06 02:25:00,
2013-05-05 22:27:00,50.0,49.5,29.79,NW,326,0.0,0.0,98,0.00,,---,0.00,VWS V14.01,2013-05-06 02:27:00,
2013-05-05 22:30:00,50.2,49.4,29.78,NE,46,0.0,2.0,97,0.00,,---,0.00,VWS V14.01,2013-05-06 02:30:00,
2013-05-05 22:32:00,50.0,49.5,29.79,NW,326,0.0,0.0,98,0.00,,---,0.00,VWS V14.01,2013-05-06 02:32:00,
2013-05-05 22:35:00,50.3,49.5,29.78,NNE,17,0.0,1.0,97,0.00,,---,0.00,VWS V14.01,2013-05-06 02:35:00,
2013-05-05 22:37:00,50.0,49.5,29.80,NW,326,0.0,0.0,98,0.00,,---,0.00,VWS V14.01,2013-05-06 02:37:00,
2013-05-05 22:40:00,50.1,49.3,29.78,North,356,2.0,2.0,97,0.00,,---,0.00,VWS V14.01,2013-05-06 02:40:00,
2013-05-05 22:42:00,50.0,49.5,29.79,NW,326,0.0,0.0,98,0.00,,---,0.00,VWS V14.01,2013-05-06 02:42:00,
2013-05-05 22:45:00,50.1,49.3,29.79,North,357,0.0,2.0,97,0.00,,---,0.00,VWS V14.01,2013-05-06 02:45:00,
2013-05-05 22:47:00,50.0,49.5,29.80,NW,326,0.0,0.0,98,0.00,,---,0.00,VWS V14.01,2013-05-06 02:47:00,
2013-05-05 22:50:00,50.0,49.2,29.79,North,353,0.0,1.0,97,0.00,,---,0.00,VWS V14.01,2013-05-06 02:50:00,
2013-05-05 22:52:00,50.1,49.6,29.80,NW,326,0.0,0.0,98,0.00,,---,0.00,VWS V14.01,2013-05-06 02:52:00,
2013-05-05 22:55:00,50.0,49.2,29.80,NNW,330,0.0,1.0,97,0.00,,---,0.00,VWS V14.01,2013-05-06 02:55:00,
2013-05-05 22:57:00,50.1,49.6,29.80,North,353,0.0,0.0,98,0.00,,---,0.00,VWS V14.01,2013-05-06 02:57:00,
2013-05-05 23:00:00,49.9,49.1,29.79,NNW,330,0.0,0.0,97,0.00,,---,0.00,VWS V14.01,2013-05-06 03:00:00,
2013-05-05 23:02:00,50.1,49.6,29.80,North,353,1.0,1.0,98,0.00,,---,0.00,VWS V14.01,2013-05-06 03:02:00,
2013-05-05 23:05:00,49.9,49.1,29.80,NNW,330,0.0,0.0,97,0.00,,---,0.00,VWS V14.01,2013-05-06 03:05:00,
2013-05-05 23:07:00,50.0,49.5,29.81,NNW,346,0.0,1.0,98,0.00,,---,0.00,VWS V14.01,2013-05-06 03:07:00,
2013-05-05 23:10:00,49.9,49.4,29.80,NNW,330,0.0,0.0,98,0.00,,---,0.00,VWS V14.01,2013-05-06 03:10:00,
2013-05-05 23:12:00,50.0,49.5,29.80,NNW,346,0.0,0.0,98,0.00,,---,0.00,VWS V14.01,2013-05-06 03:12:00,
2013-05-05 23:15:00,49.9,49.4,29.80,North,355,0.0,1.0,98,0.00,,---,0.00,VWS V14.01,2013-05-06 03:15:00,
2013-05-05 23:17:00,50.0,49.5,29.80,NNW,346,0.0,0.0,98,0.00,,---,0.00,VWS V14.01,2013-05-06 03:17:00,
2013-05-05 23:20:00,49.9,49.4,29.80,NW,326,0.0,1.0,98,0.00,,---,0.00,VWS V14.01,2013-05-06 03:20:00,
2013-05-05 23:22:00,50.1,49.6,29.80,NNW,345,0.0,1.0,98,0.00,,---,0.00,VWS V14.01,2013-05-06 03:22:00,
2013-05-05 23:25:00,50.0,49.5,29.80,NW,326,0.0,1.0,98,0.00,,---,0.00,VWS V14.01,2013-05-06 03:25:00,
2013-05-05 23:27:00,50.1,49.6,29.80,NW,316,0.0,1.0,98,0.00,,---,0.00,VWS V14.01,2013-05-06 03:27:00,
2013-05-05 23:30:00,50.0,49.5,29.79,NW,326,0.0,0.0,98,0.00,,---,0.00,VWS V14.01,2013-05-06 03:30:00,
2013-05-05 23:32:00,50.1,49.6,29.80,NW,316,0.0,0.0,98,0.00,,---,0.00,VWS V14.01,2013-05-06 03:32:00,
2013-05-05 23:35:00,50.0,49.5,29.80,NW,326,0.0,0.0,98,0.00,,---,0.00,VWS V14.01,2013-05-06 03:35:00,
2013-05-05 23:37:00,50.1,49.6,29.78,NW,316,0.0,1.0,98,0.00,,---,0.00,VWS V14.01,2013-05-06 03:37:00,
2013-05-05 23:40:00,50.0,49.5,29.80,NW,326,0.0,0.0,98,0.00,,---,0.00,VWS V14.01,2013-05-06 03:40:00,
2013-05-05 23:42:00,50.0,49.5,29.78,East,80,2.0,2.0,98,0.00,,---,0.00,VWS V14.01,2013-05-06 03:42:00,
2013-05-05 23:45:00,50.0,49.5,29.79,NW,326,0.0,0.0,98,0.00,,---,0.00,VWS V14.01,2013-05-06 03:45:00,
2013-05-05 23:47:00,50.0,49.5,29.79,WNW,293,4.0,4.0,98,0.00,,---,0.00,VWS V14.01,2013-05-06 03:47:00,
2013-05-05 23:50:00,50.0,49.5,29.80,NW,326,0.0,1.0,98,0.00,,---,0.00,VWS V14.01,2013-05-06 03:50:00,
2013-05-05 23:52:00,49.9,49.4,29.78,WNW,291,0.0,1.0,98,0.00,,---,0.00,VWS V14.01,2013-05-06 03:52:00,
2013-05-05 23:55:00,50.1,49.6,29.80,North,354,0.0,2.0,98,0.00,,---,0.00,VWS V14.01,2013-05-06 03:55:00,
2013-05-05 23:57:00,50.0,49.5,29.80,West,266,0.0,2.0,98,0.00,,---,0.00,VWS V14.01,2013-05-06 03:57:00,